Warning: Javascript must be enabled to use all the features on this page!


Page Loading - Please Wait...

Click to hideNews Bulletins

Peak Streamflow for the Nation

USGS 10312000 CARSON RV NR FORT CHURCHILL, NV

Lyon County, Nevada
Hydrologic Unit Code 16050202
Latitude  39°17'30", Longitude 119°18'40" NAD83
Drainage area 1,302  square miles
Gage datum 4,180.00 feet above NGVD29
Output formats
Table
Graph
Tab-separated file
peakfq (watstore) format
Reselect output format
Water
Year
Date Gage
Height
(feet)
Stream-
flow
(cfs)
1911 1911-06-20   4,4701,5
1912 1912-06-05   1,6401,5
1913 1913-05-29   1,3601,5
1914 1914-01-26 11.50 6,1501,5
1915 1915-05-31   2,3401,5
1916 1916-02-11   3,9501,5
1917 1917-06-11   3,0501,5
1918 1918-06-13   1,5001,5
1919 1919-05-31   3,1401,5
1920 1920-05-21   1,6801,5
1921 1921-05-16   1,8501,5
1922 1922-06-06   3,9001,5
1923 1923-05-26   2,1701,5
1924 1924-05-11   3901,5
1925 1925-04-18   1,9601,5
1926 1926-05-06   9821,5
1927 1927-05-18   2,4301,5
1928 1928-03-28   2,7101,5
1929 1929-05-19   7461,5
1930 1930-05-22   1,2901,5
1931 1931-04-29   6251,5
1932 1932-05-20   2,2001,5
1933 1933-06-01   1,3701,5
1934 1934-04-01   6941,5
1935 1935-05-28   1,9001,5
1936 1936-02-24   2,0401,5
1937 1937-05-17   2,1101,5
1938 1937-12-14   5,5001,5
1939 1939-04-14   7901,5
1940 1940-05-15   2,0001,5
1941 1941-05-14   2,1501,5
1942 1942-01-29   3,7301,5
1943 1943-01-24   6,3005
1944 1944-05-11   1,1901,5
1945 1945-05-12   2,4401,5
1946 1946-05-08   1,7601,5
1947 1947-05-06   1,4501,5
1948 1948-05-28   1,5201,5
1949 1949-05-18   2,0401,5
1950 1950-06-02   1,9801,5
1951 1950-11-23   7,8501,5
1952 1952-06-11   3,6501,5
1953 1953-06-22   1,4401,5
1954 1954-03-10   1,5001,5
1955 1955-06-11   1,2001,5
1956 1955-12-26 11.00 9,6801,5
1957 1957-06-06   2,0501,5
1958 1958-05-21 5.656 2,8805
1959 1959-02-18 4.41 1,3205
1960 1960-02-10 3.87 8265
1961 1961-06-03 3.74 7175
1962 1962-05-08 4.84 1,7205
1963 1963-02-02 10.83 15,3005
1964 1964-05-28 4.08 1,0605
1965 1964-12-26 7.96 7,2205
1966 1966-05-12 4.12 1,0805
1967 1967-05-26 6.18 3,7705
1968 1968-05-14 4.22 1,1605
1969 1969-05-29 6.15 3,9405
1970 1970-01-18 5.69 3,1505
1971 1971-06-28 4.94 1,9905
1972 1972-06-10 4.23 1,2305
1973 1973-05-20 5.50 2,8705
1974 1973-11-13 5.48 2,8405
1975 1975-06-03 6.00 3,3105
1976 1975-10-28 3.36 6275
1977 1977-06-11 2.55 2305
1978 1978-05-16 5.26 2,3705
1979 1979-01-13 6.30 3,8305
1980 1980-01-15 7.34 6,1705
1981 1981-05-03 3.47 9705
1982 1982-04-13 5.942 5,5305
1983 1983-06-01 6.28 6,3505
1984 1983-11-26 5.02 3,8705
1985 1985-04-17 3.29 1,4605
1986 1986-02-19 8.35 16,6005
1987 1987-05-17 5.316 7765
1988 1988-01-12 4.16 2455
1989 1989-03-09 6.03 1,3605
1990 1990-04-30 4.68 3915
1991 1991-05-27 5.58 8995
1992 1992-04-19 4.59 3345
1993 1993-05-21 7.50 2,8405
1994 1994-05-13 5.37 7285
1995 1995-03-12 10.43 6,2905
1996 1996-05-18 9.14 5,5305
1997 1997-01-03 15.27 22,3005
1998 1998-03-26 14.736 4,1105
1999 1999-05-30 14.24 3,9705
2000 2000-05-26 6.226 2,0905
2001 2001-05-13 5.25 1,1605
2002 2002-04-16 5.60 1,3705
2003 2003-05-31 7.02 2,8605
2004 2004-05-07 5.42 1,1705
2005 2005-05-22 8.49 4,5305
2006 2006-01-02 11.24 9,8005
2007 2007-05-02 4.57 5015
2008 2008-05-20 5.71 1,4005
2009 2009-05-05 6.66 1,9505
2010 2010-06-08 7.182 3,2805
2011 2011-06-30 7.58 3,3205
2012 2012-04-27 5.95 1,2705
2013 2012-12-03 5.53 1,1705
2014 2014-02-10 4.99 6225
2015 2015-02-10 5.20 8175
2016 2016-05-16 6.15 1,4705
2017 2017-02-12 10.67 8,7005
2018 2018-04-09 7.63 3,4505
2019 2019-06-07 7.36 3,7505
2020 2020-05-02 5.12 1,1605
?
  Peak Gage-Height Qualification Codes.
?
  Peak Streamflow Qualification Codes.